| DS18B20 | SHTC3 | PZEM-004T | WiFi | ||||||||
|---|---|---|---|---|---|---|---|---|---|---|---|
| ID | Date d/m/Y & Time | data1 สูง | data2 ต่ำ | data3 นอก | temp pcb | hum pcb | Volt | Amp | Watt | rssi | Time |
| 12921 | 15/08/2026 20:08:26 | 32.0  | 32.1  | 29.8  | 33.1  | 66.6  | 231.5  | 0.04  | 4.6  | -77  | 20:08 |
| 12920 | 15/08/2026 20:03:42 | 32.0  | 32.2  | 29.7  | 33.1  | 66.9  | 232.1  | 0.04  | 4.6  | -77  | 20:03 |
| 12919 | 15/08/2026 19:58:58 | 32.0  | 32.2  | 29.8  | 33.1  | 66.7  | 232.3  | 0.04  | 4.5  | -76  | 19:58 |
| 12918 | 15/08/2026 19:54:15 | 32.0  | 32.2  | 30.0  | 33.1  | 66.7  | 232.0  | 0.04  | 4.6  | -77  | 19:54 |
| 12917 | 15/08/2026 19:49:31 | 32.1  | 32.3  | 30.2  | 33.1  | 66.6  | 229.8  | 0.04  | 4.6  | -78  | 19:49 |
| 12916 | 15/08/2026 19:44:48 | 32.1  | 32.3  | 30.2  | 33.1  | 66.5  | 229.9  | 0.04  | 4.6  | -77  | 19:44 |
| 12915 | 15/08/2026 19:40:04 | 32.1  | 32.4  | 30.4  | 33.3  | 66.5  | 229.5  | 0.04  | 4.6  | -75  | 19:40 |
| 12914 | 15/08/2026 19:35:21 | 32.2  | 32.4  | 30.2  | 33.3  | 66.3  | 229.7  | 0.04  | 4.6  | -76  | 19:35 |
| 12913 | 15/08/2026 19:30:38 | 32.2  | 32.4  | 30.3  | 33.3  | 66.1  | 229.9  | 0.04  | 4.6  | -77  | 19:30 |
| 12912 | 15/08/2026 19:25:54 | 32.3  | 32.5  | 30.4  | 33.5  | 66.0  | 229.6  | 0.04  | 4.6  | -73  | 19:25 |
| 12911 | 15/08/2026 19:21:11 | 32.4  | 32.5  | 30.5  | 33.6  | 65.8  | 228.8  | 0.04  | 4.6  | -77  | 19:21 |
| 12910 | 15/08/2026 19:16:28 | 32.5  | 32.6  | 30.9  | 33.7  | 65.7  | 229.2  | 0.04  | 4.6  | -77  | 19:16 |
| 12909 | 15/08/2026 19:11:44 | 32.6  | 32.6  | 30.8  | 33.6  | 65.6  | 229.1  | 0.04  | 4.6  | -73  | 19:11 |
| 12908 | 15/08/2026 19:07:01 | 32.6  | 32.6  | 31.0  | 33.6  | 65.4  | 231.5  | 0.04  | 4.6  | -78  | 19:07 |
| 12907 | 15/08/2026 19:02:18 | 32.7  | 32.6  | 30.9  | 33.7  | 65.4  | 229.9  | 0.04  | 4.6  | -75  | 19:02 |
| 12906 | 15/08/2026 18:57:35 | 32.7  | 32.7  | 31.2  | 33.7  | 65.3  | 231.5  | 0.04  | 4.6  | -75  | 18:57 |
| 12905 | 15/08/2026 18:52:52 | 32.8  | 32.7  | 31.2  | 33.8  | 65.4  | 229.9  | 0.04  | 4.6  | -77  | 18:52 |
| 12904 | 15/08/2026 18:48:08 | 32.8  | 32.8  | 31.2  | 33.8  | 65.3  | 231.5  | 0.04  | 4.6  | -75  | 18:48 |
| 12903 | 15/08/2026 18:43:24 | 32.9  | 32.8  | 31.2  | 34.0  | 65.2  | 229.6  | 0.04  | 4.6  | -76  | 18:43 |
| 12902 | 15/08/2026 18:38:41 | 32.9  | 32.8  | 31.3  | 33.8  | 65.1  | 231.2  | 0.04  | 4.6  | -76  | 18:38 |
| 12901 | 15/08/2026 18:33:58 | 33.0  | 32.8  | 31.3  | 34.0  | 65.1  | 232.3  | 0.04  | 4.6  | -77  | 18:33 |
| 12900 | 15/08/2026 18:29:14 | 33.1  | 32.9  | 31.4  | 34.1  | 65.0  | 229.5  | 0.04  | 4.6  | -77  | 18:29 |
| 12899 | 15/08/2026 18:24:32 | 33.1  | 32.9  | 31.5  | 34.1  | 64.8  | 232.3  | 0.04  | 4.6  | -77  | 18:24 |
| 12898 | 15/08/2026 18:19:48 | 33.1  | 32.9  | 31.6  | 34.1  | 64.8  | 230.5  | 0.04  | 4.5  | -77  | 18:19 |